[[{"header":{"parameterUnit":"m.s-1","parameterCategory":1,"la1":30.2991,"la2":30.254,"lo1":-89.0895,"lo2":-89.0444,"dy":0.0017,"dx":0.0017,"nx":28,"ny":28,"refTime":"2023-09-14T21:00:00:Z","depth":0,"parameterNumber":2,"parameterNumberName":"U-component_of_WINDS"},"data":[0,0,0,0,0,0,0,0,0,0,0,0,0,0,0,0,0,0,0,0,0,0,0,0,0,0,0,0,0,0,0,0,0,0,0,0,0,0,0,0,0,0,0,0,0,0,0,0,0,0,0,0,0,0,0,0,0,0,-0.5693,-0.5691,0,-0.5582,-0.5581,-0.5579,-0.5491,-0.549,-0.5489,-0.5488,-0.5369,-0.5366,-0.5364,0,0,0,0,0,0,0,0,0,0,0,0,0,-0.5822,-0.582,-0.5693,-0.5691,-0.569,-0.5582,-0.5581,-0.5579,-0.5491,-0.549,-0.5489,-0.5488,-0.537,-0.5367,-0.5364,0,0,0,0,0,0,0,0,0,0,0,0,0,-0.5744,-0.5819,-0.5693,-0.5633,-0.5627,-0.5582,-0.5581,-0.5579,-0.5491,-0.549,-0.5489,-0.5488,-0.5371,-0.5367,-0.5364,-0.5368,0,0,-0.5353,-0.5351,0,0,0,0,0,0,0,0,-0.5748,-0.5739,-0.5643,-0.5637,-0.563,-0.5549,-0.5582,-0.5508,-0.5492,-0.5543,-0.5488,-0.5487,-0.5429,-0.5421,-0.5403,-0.5362,-0.5357,-0.5352,-0.535,-0.5349,-0.5348,0,0,0,0,0,0,0,-0.5754,-0.5743,-0.5649,-0.5642,-0.5634,-0.561,-0.5597,-0.5568,-0.5494,-0.5538,-0.5531,-0.552,-0.5425,-0.5407,-0.5399,-0.5355,-0.5352,-0.5349,-0.5347,-0.5346,-0.5311,-0.5312,0,0,0,0,0,0,-0.5769,-0.5748,-0.5652,-0.5645,-0.5687,-0.5609,-0.5595,-0.5576,-0.5495,-0.5481,-0.5521,-0.5516,-0.5413,-0.5404,-0.5395,-0.5394,-0.5349,-0.5345,-0.5343,-0.531,-0.5311,-0.5313,0,0,0,0,0,0,-0.5773,-0.5762,-0.5657,-0.5695,-0.568,-0.5608,-0.5588,-0.5575,-0.5556,-0.5482,-0.5468,-0.5516,-0.5412,-0.54,-0.5375,-0.5389,-0.5344,-0.534,-0.5309,-0.531,-0.5312,-0.5393,0,0,0,0,0,0,-0.5777,-0.5763,-0.5766,-0.5696,-0.5678,-0.5641,-0.5589,-0.5574,-0.5551,-0.5543,-0.5473,-0.546,-0.541,-0.5381,-0.5372,-0.5383,-0.5338,-0.5307,-0.5309,-0.5312,-0.5389,-0.5398,-0.5405,0,0,0,0,0,-0.5782,-0.5792,-0.5766,-0.5755,-0.568,-0.5642,-0.5632,-0.5576,-0.5552,-0.5553,-0.5505,-0.5462,-0.5389,-0.5379,-0.5368,-0.5379,-0.5306,-0.5309,-0.5311,-0.5386,-0.5396,-0.5405,0,0,0,0,0,0,-0.5863,-0.5781,-0.5752,-0.5741,-0.57,-0.5628,-0.5627,-0.5589,-0.5552,-0.5546,-0.5476,-0.5461,-0.5444,-0.5408,-0.5399,-0.5378,-0.5342,-0.5342,-0.5402,-0.5411,-0.5419,-0.5428,-0.5335,0,0,0,0,0,-0.588,-0.5858,-0.5787,-0.5783,-0.5764,-0.57,-0.5681,-0.5642,-0.5595,-0.5576,-0.5527,-0.5482,-0.5448,-0.5427,-0.5393,-0.5383,-0.5366,-0.5385,-0.5393,-0.54,-0.5401,-0.5393,-0.54,-0.5322,-0.5322,-0.5322,0,0,-0.5914,-0.5867,-0.5857,-0.5799,-0.5762,-0.5739,-0.5685,-0.5663,-0.5645,-0.5572,-0.5547,-0.5509,-0.5453,-0.5437,-0.5427,-0.5407,-0.5419,-0.5403,-0.5409,-0.5407,-0.5396,-0.5404,-0.5411,-0.5324,-0.5323,-0.5323,0,0,-0.5964,-0.5927,-0.592,-0.5885,-0.5831,-0.5787,-0.5786,-0.572,-0.5693,-0.5666,-0.5611,-0.5587,-0.5531,-0.5494,-0.5468,-0.5505,-0.5463,-0.5495,-0.5537,-0.5529,-0.5536,-0.5541,-0.5554,-0.5559,-0.5496,-0.5497,-0.5497,0,-0.6013,-0.5979,-0.5921,-0.5903,-0.5878,-0.5813,-0.5804,-0.5772,-0.5709,-0.5692,-0.5671,-0.56,-0.5558,-0.5531,-0.5541,-0.5522,-0.5516,-0.5503,-0.554,-0.5544,-0.5548,-0.556,-0.5565,-0.5501,-0.55,-0.55,-0.5499,0,-0.6041,-0.6018,-0.6018,-0.5961,-0.5937,-0.5923,-0.5862,-0.5843,-0.5806,-0.5764,-0.5738,-0.5685,-0.5638,-0.5629,-0.5591,-0.5597,-0.5586,-0.5554,-0.5516,-0.5561,-0.5571,-0.5574,-0.5507,-0.5505,-0.5504,-0.5503,0,0,-0.614,-0.6052,-0.6053,-0.6026,-0.5962,-0.5941,-0.5924,-0.5881,-0.5866,-0.5824,-0.5807,-0.5762,-0.5731,-0.5701,-0.5659,-0.5653,-0.5685,-0.562,-0.5617,-0.5634,-0.5687,-0.5713,-0.5719,-0.5657,-0.5657,-0.5658,-0.5692,0,-0.6181,-0.6149,-0.6096,-0.6081,-0.6058,-0.5996,-0.5981,-0.5939,-0.5899,-0.5872,-0.5827,-0.5796,-0.5758,-0.574,-0.5731,-0.5683,-0.5694,-0.568,-0.5639,-0.5638,-0.5656,-0.5724,-0.575,-0.5785,-0.5695,-0.5696,-0.5696,0,-0.6224,-0.6188,-0.6172,-0.6109,-0.6097,-0.6085,-0.6041,-0.6017,-0.5966,-0.5938,-0.5906,-0.5859,-0.5836,-0.5802,-0.5768,-0.5759,-0.5739,-0.5713,-0.5712,-0.5706,-0.567,-0.572,-0.5795,-0.58,-0.5701,-0.5701,-0.5701,0,-0.6298,-0.6245,-0.6229,-0.6207,-0.6134,-0.6127,-0.6095,-0.6044,-0.6021,-0.5982,-0.5966,-0.5923,-0.59,-0.5867,-0.581,-0.5791,-0.5782,-0.5743,-0.5756,-0.5758,-0.5758,-0.5759,-0.5831,-0.5745,-0.5745,-0.5745,-0.5745,0,-0.6349,-0.6341,-0.6261,-0.6251,-0.624,-0.6178,-0.6168,-0.613,-0.6085,-0.6065,-0.6007,-0.5989,-0.5915,-0.5887,-0.5842,-0.582,-0.581,-0.5785,-0.5773,-0.579,-0.5794,-0.5776,-0.5772,-0.5746,-0.5746,-0.5745,-0.5745,0,-0.643,-0.6376,-0.6354,-0.6287,-0.6269,-0.6264,-0.6205,-0.6192,-0.6149,-0.6124,-0.6115,-0.6047,-0.6011,-0.5951,-0.5897,-0.5867,-0.5854,-0.5834,-0.5872,-0.5865,-0.5882,-0.5881,-0.5945,-0.595,-0.5862,-0.5863,-0.5864,0,-0.6467,-0.646,-0.6392,-0.6376,-0.6347,-0.6321,-0.6298,-0.6236,-0.6214,-0.6157,-0.615,-0.611,-0.6076,-0.6021,-0.5966,-0.5924,-0.5903,-0.5928,-0.5896,-0.5913,-0.5903,-0.5904,-0.5903,-0.5936,-0.5937,-0.5938,-0.5939,0,-0.6537,-0.6511,-0.6481,-0.6442,-0.6417,-0.6383,-0.6345,-0.6334,-0.6263,-0.6241,-0.6206,-0.6179,-0.6125,-0.6086,-0.6037,-0.6002,-0.5958,-0.5949,-0.595,-0.5968,-0.599,-0.5978,-0.5892,-0.5948,-0.5947,-0.5946,-0.5946,-0.5946,-0.6596,-0.6587,-0.6539,-0.6507,-0.6473,-0.644,-0.6424,-0.638,-0.635,-0.6303,-0.6268,-0.6235,-0.6183,-0.6113,-0.608,-0.6052,-0.6032,-0.6033,-0.6033,-0.6035,-0.6042,-0.5995,-0.6042,-0.6042,-0.6042,-0.6041,-0.6041,0,-0.6663,-0.6629,-0.6601,-0.6552,-0.6527,-0.649,-0.6447,-0.6428,-0.64,-0.6357,-0.6325,-0.6283,-0.6245,-0.6187,-0.6144,-0.6132,-0.6111,-0.6123,-0.6123,-0.6116,-0.6062,-0.6066,-0.6141,-0.6141,-0.6141,-0.6141,-0.6141,-0.6141,-0.6696,-0.6678,-0.6647,-0.6611,-0.6576,-0.6545,-0.6523,-0.6491,-0.6457,-0.6414,-0.6383,-0.6346,-0.6297,-0.6249,-0.6212,-0.6196,-0.6182,-0.6201,-0.6178,-0.6129,-0.612,-0.6111,-0.6114,-0.6198,-0.6199,-0.6234,-0.6235,-0.6235]},{"header":{"parameterUnit":"m.s-1","parameterCategory":1,"la1":30.2991,"la2":30.254,"lo1":-89.0895,"lo2":-89.0444,"dy":0.0017,"dx":0.0017,"nx":28,"ny":28,"refTime":"2023-09-14T21:00:00:Z","depth":0,"parameterNumber":3,"parameterNumberName":"V-component_of_WINDS"},"data":[0,0,0,0,0,0,0,0,0,0,0,0,0,0,0,0,0,0,0,0,0,0,0,0,0,0,0,0,0,0,0,0,0,0,0,0,0,0,0,0,0,0,0,0,0,0,0,0,0,0,0,0,0,0,0,0,0,0,0.6034,0.6033,0,0.5971,0.597,0.597,0.5939,0.5939,0.5939,0.5939,0.5872,0.587,0.5868,0,0,0,0,0,0,0,0,0,0,0,0,0,0.6122,0.612,0.6034,0.6033,0.6032,0.5971,0.597,0.597,0.5939,0.5939,0.5939,0.5939,0.5872,0.587,0.5868,0,0,0,0,0,0,0,0,0,0,0,0,0,0.6074,0.612,0.6034,0.601,0.6007,0.5971,0.597,0.5969,0.5939,0.5939,0.5939,0.5939,0.5873,0.587,0.5868,0.5851,0,0,0.5859,0.5858,0,0,0,0,0,0,0,0,0.6077,0.6071,0.6014,0.6011,0.6008,0.5963,0.5977,0.5929,0.5939,0.5965,0.5939,0.5939,0.5902,0.5897,0.5885,0.5848,0.5845,0.5859,0.5858,0.5856,0.5856,0,0,0,0,0,0,0,0.608,0.6073,0.6009,0.6013,0.6009,0.6,0.5993,0.5968,0.5934,0.5962,0.596,0.5953,0.59,0.5888,0.5883,0.5844,0.5859,0.5857,0.5855,0.5854,0.5786,0.5786,0,0,0,0,0,0,0.6088,0.6076,0.6011,0.6007,0.6043,0.5999,0.5991,0.5977,0.5934,0.5927,0.5953,0.5952,0.5892,0.5886,0.5881,0.5856,0.5856,0.5854,0.5852,0.5787,0.5786,0.5786,0,0,0,0,0,0,0.609,0.6082,0.6013,0.6041,0.6031,0.5997,0.5982,0.5976,0.5963,0.5927,0.592,0.5947,0.5892,0.5884,0.5858,0.5853,0.5853,0.585,0.5787,0.5787,0.5786,0.5808,0,0,0,0,0,0,0.6092,0.6083,0.6078,0.6041,0.603,0.5993,0.5982,0.5975,0.5959,0.5957,0.5919,0.5913,0.5891,0.5862,0.5855,0.585,0.5848,0.5787,0.5787,0.5786,0.5808,0.5809,0.581,0,0,0,0,0,0.6096,0.6086,0.6078,0.607,0.6023,0.5993,0.5987,0.5963,0.5959,0.5952,0.5928,0.5914,0.5855,0.586,0.5852,0.5845,0.5787,0.5787,0.5786,0.5807,0.5809,0.581,0,0,0,0,0,0,0.6123,0.6081,0.6071,0.605,0.6025,0.5988,0.5979,0.5965,0.5941,0.5939,0.591,0.5901,0.5877,0.5859,0.5864,0.5825,0.582,0.5818,0.5838,0.5839,0.584,0.5845,0.5846,0,0,0,0,0,0.6126,0.6107,0.6071,0.6056,0.6044,0.6014,0.6,0.5984,0.5957,0.5946,0.592,0.5894,0.5869,0.5853,0.5828,0.5805,0.5795,0.5796,0.5797,0.5798,0.5797,0.578,0.578,0.5785,0.5785,0.5785,0,0,0.6133,0.6108,0.6098,0.6061,0.604,0.6019,0.6005,0.5984,0.5968,0.5942,0.5916,0.5896,0.5864,0.5839,0.5826,0.5822,0.5793,0.5798,0.5799,0.5796,0.578,0.5779,0.5779,0.5785,0.5785,0.5785,0,0,0.6135,0.6115,0.6099,0.6078,0.6047,0.6026,0.6023,0.5987,0.5973,0.5946,0.5926,0.5905,0.5863,0.5841,0.5824,0.5815,0.58,0.5808,0.5812,0.5797,0.5796,0.5796,0.5791,0.579,0.5806,0.5806,0.5806,0,0.6147,0.6117,0.6092,0.6072,0.6055,0.6031,0.6014,0.5994,0.5956,0.5944,0.5941,0.5887,0.5864,0.5831,0.5829,0.5817,0.581,0.5812,0.5799,0.5798,0.5797,0.5792,0.579,0.5807,0.5807,0.5807,0.5807,0,0.6132,0.6111,0.6102,0.6066,0.6048,0.6029,0.6,0.5984,0.5969,0.5948,0.5919,0.5891,0.5859,0.585,0.5835,0.5815,0.5813,0.5805,0.5798,0.5798,0.5793,0.5791,0.5809,0.5808,0.5808,0.5808,0,0,0.615,0.61,0.6097,0.6079,0.6042,0.6024,0.6003,0.5973,0.5959,0.5933,0.5913,0.5878,0.5869,0.585,0.5831,0.5818,0.581,0.5811,0.5809,0.581,0.5784,0.579,0.5788,0.58,0.58,0.58,0.5786,0,0.6146,0.6108,0.6085,0.6056,0.6035,0.6011,0.5992,0.5966,0.5946,0.5923,0.59,0.5875,0.5866,0.5854,0.584,0.5814,0.5804,0.5815,0.578,0.5779,0.5788,0.5786,0.5792,0.5781,0.5784,0.5784,0.5783,0,0.6136,0.6111,0.608,0.6044,0.6034,0.6018,0.5986,0.5966,0.5935,0.5921,0.5899,0.588,0.5854,0.585,0.5814,0.5821,0.5805,0.579,0.5789,0.5784,0.5781,0.5779,0.5777,0.5775,0.578,0.578,0.5781,0,0.615,0.6109,0.6084,0.607,0.6027,0.6016,0.5997,0.5967,0.5949,0.5921,0.5909,0.5879,0.5861,0.5837,0.581,0.581,0.5775,0.5769,0.5761,0.5761,0.5754,0.5755,0.5748,0.5746,0.5746,0.5746,0.5746,0,0.6147,0.6129,0.609,0.6075,0.6053,0.6025,0.6003,0.5982,0.5955,0.5934,0.5911,0.5891,0.5857,0.5832,0.5811,0.5782,0.5775,0.5761,0.5756,0.5763,0.5764,0.5751,0.5751,0.5745,0.5745,0.5745,0.5746,0,0.6159,0.6133,0.6104,0.6066,0.6055,0.6041,0.6007,0.599,0.5968,0.5941,0.5933,0.5898,0.5868,0.5838,0.5798,0.5783,0.5754,0.5747,0.5765,0.5761,0.5754,0.5755,0.5738,0.5733,0.5736,0.5736,0.5736,0,0.6159,0.6144,0.6104,0.6089,0.607,0.6046,0.6028,0.5999,0.5981,0.5943,0.5931,0.5899,0.5872,0.5824,0.5794,0.5762,0.5753,0.5749,0.5748,0.5755,0.5751,0.5752,0.5749,0.575,0.575,0.575,0.575,0,0.616,0.6147,0.6123,0.6093,0.6072,0.6046,0.602,0.6009,0.5974,0.5954,0.5923,0.5903,0.5861,0.5828,0.5793,0.5771,0.5754,0.5751,0.5747,0.5754,0.5764,0.5757,0.5766,0.5751,0.5751,0.5751,0.5751,0.5751,0.6165,0.615,0.6119,0.6091,0.6069,0.6044,0.6026,0.6002,0.5976,0.594,0.5924,0.5892,0.5859,0.5809,0.5788,0.5762,0.5757,0.5752,0.5751,0.5749,0.575,0.5769,0.5755,0.5755,0.5755,0.5755,0.5755,0,0.6164,0.6142,0.6117,0.6081,0.6059,0.6046,0.6016,0.5997,0.597,0.5941,0.5915,0.5878,0.5847,0.5813,0.5779,0.5764,0.5755,0.5756,0.5756,0.5751,0.5757,0.5763,0.5763,0.5763,0.5763,0.5764,0.5764,0.5764,0.616,0.6134,0.6117,0.6078,0.6056,0.6026,0.6009,0.5985,0.5962,0.5922,0.5896,0.5875,0.5843,0.5807,0.5776,0.5767,0.5754,0.5757,0.5746,0.5751,0.5751,0.575,0.5756,0.5755,0.5755,0.5742,0.5742,0.5742]}]]